Preview of NWS' New Version of Forecast
This preview is not operational and should not be used for support decisions.

Regional Weather Roundup (RWR)

Issued by Gray - Portland, ME (GYX)

                            
133 
ASUS41 KGYX 211605
RWRGYX
WEATHER ROUNDUP FOR MAINE AND NEW HAMPSHIRE
NATIONAL WEATHER SERVICE GRAY ME
1200 PM EDT MON MAY 21 2018

MEZ002-005-006-010-012-015-018-020-021-024-026-027-029-211700-
MAINE
  
CITY           SKY/WX    TMP DP  RH WIND       PRES   REMARKS
PORTLAND       FAIR      72  39  30 VRB7      30.10F                  
SANFORD        FAIR      72  35  25 VRB7      30.12F                  
BAR HARBOR     FAIR      70  39  32 NW13G18   30.03F                  
WISCASSET      FAIR      71  38  29 VRB6      30.08F                  
ROCKLAND       FAIR      70  41  34 W16G23    30.05F                  
FRYEBURG       FAIR      73  36  25 NW14G23   30.10F                  
LEWISTONAUBURN FAIR      71  38  29 SW15      30.08F                  
AUGUSTA        FAIR      71  36  27 W13G21    30.07F                  
WATERVILLE     FAIR      71  39  31 W17       30.03F                  
BANGOR         FAIR      72  38  29 NW12G21   30.02F                  
GREENVILLE       N/A     66  34  30 W12G31    29.99F                  
MILLINOCKET    FAIR      70  35  27 W13G26    29.97F                  
HOULTON        FAIR      70  34  26 NW16G28   29.91F                  
PRESQUE ISLE   PTSUNNY   65  32  29 W17G29    29.90F                  
FRENCHVILLE    LGT RAIN  63  30  28 NW28G44   29.89S                  
CARIBOU        PTSUNNY   65  31  28 W14G26    29.88F                  
$$

NHZ002-005-008-009-011-012-014-211700-
NEW HAMPSHIRE
  
CITY           SKY/WX    TMP DP  RH WIND       PRES   REMARKS
ROCHESTER      FAIR      73  42  32 W8        30.12F                  
NASHUA         FAIR      70  37  29 W5        30.16F                  
MANCHESTER     FAIR      72  37  28 VRB5      30.14F                  
CONCORD        FAIR      72  39  30 N5        30.15F                  
PLYMOUTH       FAIR      69  37  31 NW10G20   30.14S                  
BERLIN         FAIR      70  37  29 NW8G21    30.09F                  
WHITEFIELD     FAIR      68  39  34 W14G21    30.12F                  
JAFFREY        FAIR      69  38  32 VRB7      30.18F                  
KEENE          FAIR      73  36  25 N8        30.18F                  
LEBANON        FAIR      72  39  30 VRB3      30.14F                  
MT WASHINGTON  MOSUNNY   39  25  56 NW46G60     N/A                   
$$

VTZ005-007-008-211700-
VERMONT
  
CITY           SKY/WX    TMP DP  RH WIND       PRES   REMARKS
ST JOHNSBURY     N/A     70  35  27 MISG      30.11F                  
MONTPELIER     FAIR      67  40  37 NW9       30.19F                  
BURLINGTON     FAIR      70  42  36 SW7       30.14F                  
$$

MAZ007-012-024-CTZ003-RIZ002-NYZ038-NYZ072-211700-
SOUTHERN NEW ENGLAND AND NY
  
CITY           SKY/WX    TMP DP  RH WIND       PRES   REMARKS
BOSTON         FAIR      68  49  50 SE9       30.16S                  
WORCESTER      FAIR      68  38  33 NW6       30.18S                  
NANTUCKET      FAIR      68  45  43 N10       30.17R                  
PROVIDENCE     FAIR      72  45  37 N3        30.18S                  
HARTFORD       FAIR      70  43  37 VRB6      30.19S                  
ALBANY         FAIR      70  42  36 NE3       30.21F                  
NEW YORK CITY  PTSUNNY   71  46  40 E6        30.20S                  
$$

ANZ081-ANZ082-ANZ150-NHZ014-MEZ023>029-211700-
COASTAL MARINE OBSERVATIONS
  
STATION/POSITION TIME  TEMP    WIND        PRES    WAVE
                       AIR SEA DIR/SP/G            HT/PER
                 (UTC) (F)     (DEG/KT/KT) (MB)    (FT/S)
MOUNT DESERT ROC 1600   50     230/ 16/ 16 1018.1F
MATINICUS ROCK   1500   53     240/ 13/ 14 1018.9F
ISLE OF SHOALS   1500   60     190/  6/  6 1020.5F
JEFFREYS LEDGE   1536      53                N/A     2/ 7
CASHES LEDGE BUO 1550   56 50              1020.2F   3/ 8
$$

.............KEY..............
   WCI - WIND CHILL
   TC  - TEMPERATURE IN CELSIUS
   VSB - VISIBILITY IN MILES
   HX  - HEAT INDEX
   FAIR- INDICATES FEW OR NO CLOUDS BELOW 12,000 FT, WITH NO 
         SIGNIFICANT WEATHER AND/OR OBSTRUCTIONS TO VISIBILITY.